This demonstration page uses our WeatherBlox Daily Observations layout. Learn more.

Left ArrowRight Arrow

39.92423, -83.80882

Hourly Observations for December 9, 2022

Temp ( °F °C ) Dew Point ( °F °C ) Humidity (%) Winds ( mph kmh ) Pressure ( in mb ) Visibility ( mi km ) Precip ( " mm )
12:05 am 00:05 Cloudy with Mist and Fog N/A N/A N/A NE 9 15 30.31 1027 3 4 0.00 0.00
12:12 am 00:12 Cloudy with Mist and Fog N/A N/A N/A NE 8 13 30.31 1027 3 5 0.00 0.00
12:26 am 00:26 Cloudy with Mist and Fog N/A N/A N/A NE 9 15 30.31 1027 3 5 0.00 0.00
12:36 am 00:36 Cloudy with Mist and Fog N/A N/A N/A NE 10 17 30.31 1027 3 5 0.00 0.00
12:56 am 00:56 Cloudy with Mist and Fog N/A N/A N/A NE 10 17 30.31 1027 3 5 0.00 0.00
1:24 am 01:24 Cloudy with Mist and Fog N/A N/A N/A NE 12 19 30.31 1026 3 5 0.00 0.00
1:56 am 01:56 Cloudy with Mist and Fog N/A N/A N/A ENE 13 20 30.31 1026 3 4 0.00 0.00
2:23 am 02:23 Cloudy with Mist and Fog N/A N/A N/A E 12 19 30.31 1026 2 3 0.00 0.00
2:56 am 02:56 Cloudy with Mist and Fog N/A N/A N/A ENE 13 20 30.31 1026 1 2 0.00 0.00
3:38 am 03:38 Cloudy with Mist and Fog N/A N/A N/A ENE 10 17 30.31 1026 2 3 0.00 0.00
3:56 am 03:56 Cloudy with Mist and Fog N/A N/A N/A E 9 15 30.31 1026 3 4 0.00 0.00
4:20 am 04:20 Cloudy with Mist and Fog N/A N/A N/A ENE 14 22 30.28 1026 3 5 0.00 0.00
4:31 am 04:31 Cloudy with Mist and Fog N/A N/A N/A E 15 24 30.28 1026 3 5 0.00 0.00
4:56 am 04:56 Cloudy with Mist and Fog 38 3.3 N/A N/A E 14 22 30.24 1024 3 5 0.00 0.00
5:56 am 05:56 Cloudy with Haze 38 3.3 N/A N/A E 14 22 30.24 1024 4 6 0.00 0.00
6:56 am 06:56 Cloudy with Haze 38 3.3 N/A N/A E 12 19 30.24 1024 4 6 0.00 0.00
7:43 am 07:43 Mostly Cloudy with Mist and Fog 36 2 N/A N/A ENE 6 9 30.27 1025 2 3 0.00 0.00
7:56 am 07:56 Partly Cloudy with Mist and Fog 35 1.7 N/A N/A ENE 7 11 30.25 1024 2 3 0.00 0.00
8:56 am 08:56 Sunny with Mist and Fog 38 3.3 N/A N/A ENE 12 19 30.24 1024 3 5 0.00 0.00
9:56 am 09:56 Sunny with Mist and Fog 40 4.4 40 4.4 100 100 E 13 20 30.23 1024 6 10 0.00 0.00
10:56 am 10:56 Mostly Sunny 43 6.1 38 3.3 82 82 ESE 15 24 30.22 1023 8 13 0.00 0.00
11:56 am 11:56 Partly Cloudy 45 7.2 38 3.3 76 76 E 15 24 30.18 1022 9 14 0.00 0.00
12:56 pm 12:56 Cloudy 47 8.3 39 3.9 74 74 E 12 19 30.14 1021 9 14 0.00 0.00
1:56 pm 13:56 Cloudy 47 8.3 38 3.3 71 71 E 13 20 30.11 1020 10 16 0.00 0.00
2:56 pm 14:56 Cloudy 47 8.3 37 2.8 68 68 E 12 19 30.10 1019 10 16 0.00 0.00
3:56 pm 15:56 Cloudy 46 7.8 37 2.8 71 71 E 10 17 30.08 1019 10 16 0.00 0.00
4:34 pm 16:34 Cloudy with Light Rain 45 7 45 7 100 100 Calm 30.11 1020 4 6 0.03 0.76
4:56 pm 16:56 Cloudy with Light Rain 43 6.1 43 6.1 100 100 Calm 30.13 1020 3 5 0.06 1.52
5:18 pm 17:18 Cloudy with Light Rain 43 6 N/A N/A NE 3 6 30.14 1021 2 3 0.01 0.25
5:33 pm 17:33 Cloudy with Light Rain N/A N/A N/A NNW 5 7 30.18 1022 4 6 0.02 0.51
5:56 pm 17:56 Cloudy N/A N/A N/A N 5 7 30.18 1022 3 5 0.02 0.51
6:03 pm 18:03 Cloudy N/A N/A N/A N 7 11 30.18 1022 3 4 0.01 0.13
6:36 pm 18:36 Cloudy with Mist and Fog N/A N/A N/A N 6 9 30.18 1022 2 3 0.01 0.13
6:48 pm 18:48 Cloudy N/A N/A N/A NNE 8 13 30.18 1022 2 3 0.01 0.13
6:56 pm 18:56 Cloudy N/A N/A N/A NNE 10 17 30.18 1022 2 3 0.01 0.13
7:37 pm 19:37 Cloudy with Mist and Fog N/A N/A N/A NE 9 15 30.18 1022 3 4 0.01 0.13
7:56 pm 19:56 Cloudy with Mist and Fog N/A N/A N/A NE 10 17 30.18 1022 3 5 0.01 0.13
8:33 pm 20:33 Cloudy with Haze N/A N/A N/A ENE 7 11 30.18 1022 4 6 0.00 0.00
8:56 pm 20:56 Cloudy with Haze N/A N/A N/A ENE 8 13 30.18 1022 4 6 0.00 0.00
9:56 pm 21:56 Cloudy with Haze N/A N/A N/A ENE 6 9 30.18 1022 4 6 0.00 0.00
10:56 pm 22:56 Cloudy with Light Rain 40 4.4 N/A N/A NE 8 13 30.16 1021 5 8 0.01 0.13
11:35 pm 23:35 Cloudy with Haze 39 4 N/A N/A NE 8 13 30.18 1022 4 6 0.01 0.13
11:56 pm 23:56 Cloudy with Haze 39 3.9 N/A N/A NE 8 13 30.16 1021 4 6 0.01 0.13

Powered by AerisWeather